Location: Cran-Gévrier
(45.9039°N, 6.1012°E)
Time: 05:45:31
(UTC+00:00)

Cosmos 1932 - Pass Details

Date: 09 February 2023
Orbit: 920 x 1009 km, 65.0° (Epoch: 29 March)

Event Time Altitude Azimuth Distance (km) Brightness Sun altitude
Rises 18:05:29 0° 208° (SSW) 3,643 8.0 -13.1°
Reaches altitude 10° 18:08:01 10° 206° (SSW) 2,713 7.3 -13.5°
Maximum altitude 18:14:22 76° 123° (ESE) 1,021 4.5 -14.6°
Drops below altitude 10° 18:20:54 10° 38° (NE) 2,782 6.5 -15.8°
Enters shadow 18:21:04 - 38° (NE) 2,840 6.5 -15.8°
